Regional Weather Roundup
Issued by NWS Kansas City/Pleasant Hill, MO

Home | Current Version | Previous Version | Graphics & Text | Print | Product List | Glossary Off
Versions: 1 2 3 4 5 6 7 8 9 10 11 12 13 14 15 16 17 18 19 20 21 22 23 24 25 26 27 28 29 30 31 32 33 34 35 36 37 38 39 40 41 42 43 44 45 46 47 48 49 50

000
ASUS43 KEAX 151610
RWREAX

WEATHER ROUNDUP FOR EASTERN KANSAS AND NORTHWEST MISSOURI
NATIONAL WEATHER SERVICE KANSAS CITY/PLEASANT HILL MO
1100 AM CDT MON SEP 15 2014

KSZ040-057-103>105-MOZ028-029-037-043-151700-
...KANSAS CITY METROPOLITAN AREA...

CITY           SKY/WX    TMP DP  RH WIND       PRES   REMARKS
K.C. INTL      CLOUDY    68  64  87 W6        30.09R
K.C. DOWNTOWN  CLOUDY    71  64  78 W6        30.08R
LEES SUMMIT    CLOUDY    71  64  78 W8        30.09R
OLATHE - IXD   CLOUDY    72  65  78 W13       30.09R
OLATHE - OJC   CLOUDY    71  64  78 W8        30.08R
LAWRENCE       CLOUDY    71  64  78 W9        30.09R

$$

MOZ001>008-011>017-020>025-030>033-038>040-044>046-053-054-151700-
...NORTHERN AND CENTRAL MISSOURI...

CITY           SKY/WX    TMP DP  RH WIND       PRES   REMARKS
ST. JOSEPH     CLOUDY    65  63  93 NW8       30.09R
MOSBY          CLOUDY    68  63  83 W7        30.07S
WHITEMAN AFB   MOSUNNY   75  66  74 SW15G21   30.07F
CLINTON        PTSUNNY   75  66  73 SW13      30.10S
SEDALIA        MOSUNNY   75  65  70 W17G28    30.08F
WARSAW         NOT AVBL
MARSHALL       PTSUNNY   75  66  73 W13G23    30.08R
CHILLICOTHE      N/A     64  61  90 CALM      30.08R
MOBERLY        CLOUDY    68  59  73 SW6       30.06F
KIRKSVILLE     LGT RAIN  60  58  92 CALM      30.08R FOG

$$

MOZ041-047>049-056>058-063>065-088>090-097-151700-
...EASTERN AND SOUTHERN MISSOURI...

CITY           SKY/WX    TMP DP  RH WIND       PRES   REMARKS
ST. LOUIS INTL MOSUNNY   71  60  68 S7        30.10F
SPIRIT OF STL  PTSUNNY   71  61  70 SW8       30.07F
COLUMBIA       PTSUNNY   73  64  73 SW12      30.08S
JEFFERSON CITY PTSUNNY   75  63  66 SW8       30.08F
MEXICO         CLOUDY    75  66  73 SW10G20   30.06F
HANNIBAL       CLOUDY    63  59  88 CALM      30.07F FOG
ROLLA          PTSUNNY   69  62  78 SW15      30.10F
LEBANON        MOSUNNY   75  63  64 SW15G21   30.13F
OSAGE BEACH    MOSUNNY   75  63  64 SW12G17   30.11S
SPRINGFIELD    PTSUNNY   72  64  76 SW12      30.14R
BRANSON        PTSUNNY   72  66  83 W5        30.18R
NEVADA         MOSUNNY   77  66  69 SW15      30.11S
JOPLIN         SUNNY     75  65  70 SW20G29   30.14S
WEST PLAINS    CLOUDY    67  61  81 SW7       30.19R

$$

IAZ060-094-KSZ022-034>040-054-083-096-NEZ052-066-093-151700-
...KANSAS...SOUTHEAST NEBRASKA AND IOWA...

CITY           SKY/WX    TMP DP  RH WIND       PRES   REMARKS
TOPEKA         CLOUDY    72  66  81 W7        30.09R
MANHATTAN      CLOUDY    69  63  81 N6        30.11R
EMPORIA        MOSUNNY   77  65  66 W13G21    30.09R
CHANUTE        MOSUNNY   78  66  66 SW17      30.10F
WICHITA        MOSUNNY   80  62  54 SW15      30.10S
OMAHA          PTSUNNY   57  48  72 N16       30.19R
LINCOLN        CLOUDY    58  49  72 N16       30.21R
FALLS CITY     CLOUDY    66  60  81 N10       30.12R
LAMONI         CLOUDY    60  57  89 N3        30.10R
DES MOINES     CLOUDY    58  52  80 N17       30.12R

$$



USA.gov is the U.S. government's official web portal to all federal, state and local government web resources and services.